Regional Weather Roundup
Issued by NWS

Home | Current Version | Previous Version | Graphics & Text | Print | Product List | Glossary On
Versions: 1 2 3 4 5 6 7 8 9 10 11 12 13 14 15 16 17 18 19 20 21 22 23 24 25 26 27 28 29 30 31 32 33 34 35 36 37 38 39 40 41 42 43 44 45 46 47 48 49 50
000
ASUS44 KMEG 252210
RWRTN
TENNESSEE HOURLY STATE WEATHER ROUNDUP
NATIONAL WEATHER SERVICE MEMPHIS TN
500 PM CDT WED APR 25 2018

TNZ002-004-019-021-049-052-054-088>092-252300-
WEST TENNESSEE

CITY           SKY/WX    TMP DP  RH WIND       PRES   REMARKS
MEMPHIS INTL   CLOUDY    67  44  43 NE12      29.99F
NWS MEMPHIS      N/A     66 N/A N/A MISG        N/A
JACKSON        LGT RAIN  58  52  80 W9        30.01R
DYERSBURG      LGT RAIN  59  50  72 SW10      30.01R
SOMERVILLE     SUNNY     64  43  45 N8        29.98S
COVINGTON      MOSUNNY   57  52  82 N14       30.02F
UNION CITY     SUNNY     70  57  64 SW7       29.95S
BOLIVAR        MOSUNNY   64  46  52 N8        29.99R
PARIS          SUNNY     70  48  46 CALM      29.96F
HUNTINGDON     SUNNY     72  50  46 CALM      29.95F
LEXINGTON      PTSUNNY   70  48  46 NW5       29.95S
SAVANNAH       SUNNY     70  50  49 NW14      29.95S
$$

TNZ008-025-027-028-033-062-065-066-252300-
NORTH MIDDLE TENNESSEE

CITY           SKY/WX    TMP DP  RH WIND       PRES   REMARKS
NASHVILLE      PTSUNNY   69  48  47 N9        29.96F
PORTLAND       MOSUNNY   66  50  55 W5        29.95S
CLARKSVILLE    FAIR      68  50  52 NW6       29.95F
SMYRNA         FAIR      68  49  50 NW10      29.96F
COOKEVILLE     MOSUNNY   64  48  55 NE6       29.95S
LIVINGSTON     MOCLDY    61  50  67 VRB6      29.96S
GALLATIN       MOSUNNY   68  50  52 VRB6      29.98S
CROSSVILLE     PTSUNNY   58  48  69 N10       29.97S
$$

TNZ061-075-076-078-094-096-097-252300-
SOUTH MIDDLE TENNESSEE

CITY           SKY/WX    TMP DP  RH WIND       PRES   REMARKS
LEWISBURG      PTCLDY    68  50  52 N7        29.95R
FAYETTEVILLE   MOSUNNY   70  50  49 NE9       29.95S
TULLAHOMA      MOSUNNY   64  48  55 NW7       29.95F
WINCHESTER     PTSUNNY   66  48  52 N7        29.96S
MCMINNVILLE    MOSUNNY   64  50  59 N9        29.95S
COLUMBIA       SUNNY     70  48  46 VRB6      29.93F
SHELBYVILLE    SUNNY     66  52  59 N6        29.95F
$$

TNZ017-018-042-046-047-252300-
NORTHEAST TENNESSEE

CITY           SKY/WX    TMP DP  RH WIND       PRES   REMARKS
TRI CITIES     CLOUDY    62  51  67 NW7       29.89R
ELIZABETHTON   CLOUDY    61  52  72 SW5       29.88S
$$

TNZ012-013-036-069-073-074-252300-
CENTRAL EAST TENNESSEE

CITY           SKY/WX    TMP DP  RH WIND       PRES   REMARKS
KNOXVILLE      CLOUDY    61  52  72 NW10      29.93R
OAK RIDGE      CLOUDY    61  51  70 VRB5      29.96R
DOWNTOWN KNOXV CLOUDY    61  55  82 W5        29.95R
GATLINBURG     PTSUNNY   63  50  63 W7        29.93R
MORRISTOWN     CLOUDY    59  54  82 NW10      29.93R
JACKSBORO      CLOUDY    59  50  72 VRB6      29.99R
$$

TNZ083-085-099-252300-
SOUTHEAST TENNESSEE

CITY           SKY/WX    TMP DP  RH WIND       PRES   REMARKS
CHATTANOOGA    CLOUDY    65  49  56 N7        29.95R
DAYTON         MOCLDY    64  54  68 N7        29.94S
$$

SKY/WX REPORTED AS FAIR MEANS FEW OR NO CLOUDS BELOW
12 THOUSAND FEET.





USA.gov is the U.S. government's official web portal to all federal, state and local government web resources and services.